Location: Carella
(45.8167°N, 9.2667°E)
Time: 09:40:39
(UTC+00:00)

Cosmos 1939 Rocket - Pass Details

Date: 30 March 2020
Orbit: 533 x 584 km, 97.4° (Epoch: 06 June)

Event Time Altitude Azimuth Distance (km) Brightness Sun altitude
Rises 18:08:22 0° 175° (S) 2,731 6.2 -4.1°
Reaches altitude 10° 18:10:31 10° 179° (S) 1,832 5.4 -4.5°
Maximum altitude 18:14:26 60° 259° (W) 633 3.5 -5.2°
Drops below altitude 10° 18:18:20 10° 340° (NNW) 1,820 5.9 -5.8°
Sets 18:20:28 0° 345° (NNW) 2,710 6.8 -6.2°
